Location: Dal�� Lhota
(48.7500°N, 14.0167°E)
Time: 17:47:19
(UTC+00:00)

Vanguard 3 - Pass Details

Date: 08 August 2021
Orbit: 510 x 3260 km, 33.3° (Epoch: 20 September)

Event Time Altitude Azimuth Distance (km) Brightness Sun altitude
Rises 13:50:04 0° 206° (SSW) 4,236 11.4 43.8°
Reaches altitude 10° 13:53:14 10° 192° (SSW) 3,639 11.1 43.3°
Maximum altitude 14:00:41 24° 143° (SE) 3,441 10.5 42.2°
Drops below altitude 10° 14:11:22 10° 98° (E) 5,404 11.0 40.7°
Sets 14:17:29 0° 88° (E) 6,811 11.4 39.7°
